{"data":{"norad_id":67307,"intl_designator":"2026-002C","name":"STARLINK-36481","alt_names":[],"object_type":"PAYLOAD","status":"ACTIVE","operator":null,"country":"US","launch_date":"2026-01-04","launch_site_code":"AFETR","launch_vehicle":null,"mission":null,"orbit_class":"UNKNOWN","rcs_meters":null,"size_class":null,"mass_kg":null,"dimensions":null,"purposes":["comms"],"wikipedia_slug":null,"has_3d_model":false,"image_url":null,"decayed_at":null,"tle_current":{"epoch":"2026-05-24T16:58:12.508608Z","epoch_age_seconds":97017,"freshness":"FRESH","line1":"1 67307U 26002C   26144.70708922  .00016394  00000+0  60372-3 0  9998","line2":"2 67307  43.0039 256.0624 0001696 262.9056  97.1603 15.27591422 22706","mean_motion":15.27591422,"eccentricity":0.0001696,"inclination_deg":43.0039,"raan_deg":256.0624,"arg_perigee_deg":262.9056,"mean_anomaly_deg":97.1603,"bstar":0.00060372,"rev_number":2270,"period_min":94.266043868895,"perigee_km":481.85124331438,"apogee_km":484.17854603706,"semimajor_km":6861.1518946757,"source":"CELESTRAK","updated_at":"2026-05-25T13:38:21.514602Z"}}}